Weather History for 08221 - May, 2013

Change the Weather History Date:

Wednesday, May 22, 2013

  Actual Average Record
Temperature  
Mean Temperature 59 °F -  
Max Temperature 74 °F 81 °F - ()
Min Temperature 44 °F 55 °F - ()
Degree Days  
Heating Degree Days 6    
Growing Degree Days 9 (Base 50)    
Moisture  
Dew Point 42 °F    
Average Humidity 53    
Maximum Humidity 87    
Minimum Humidity 24    
Precipitation  
Precipitation 0.00 in 0.04 in - ()
Sea Level Pressure  
Sea Level Pressure 30.06 in    
Wind  
Wind Speed 6 mph ()    
Max Wind Speed 21 mph    
Max Gust Speed 23 mph    
Visibility 7.7 miles    
Events      
T = Trace of Precipitation, MM = Missing Value Source: Averaged Metar Reports

Daily Weather History Graph

Daily Weather History Graph

Search for Another Location

Airport or City:

Trip Planner

Search our weather history database for the weather conditions in past years. The results will help you decide how hot, cold, wet, or windy it might be!

Date:

Astronomy

May. 22, 2013 Rise Set
Actual Time 6:51 AM CEST 9:30 PM CEST
Civil Twilight 6:20 AM CEST 10:02 PM CEST
Nautical Twilight 5:40 AM CEST 10:41 PM CEST
Astronomical Twilight 4:56 AM CEST 11:26 PM CEST
Moon 6:35 PM CEST (5/22) 4:47 AM CEST (5/22)
Length of Visible Light 15h 41m
Length of Day
14h 38m
Waxing Gibbous, 89% of the Moon is Illuminated
May 22
Waxing Gibbous
May 25
Full
May 31
Last Quarter
Jun 8
New
Jun 16
First Quarter

Hourly Weather History & Observations

Time (CEST) Temp. Dew Point Humidity Pressure Visibility Wind Dir Wind Speed Gust Speed Precip Events Conditions
12:00 AM 55.4 °F 41.0 °F 58% 30.09 in 6.2 mi NNE 10.4 mph - N/A   Partly Cloudy
12:30 AM 55.4 °F 41.0 °F 58% 30.09 in 6.2 mi North 10.4 mph - N/A   Scattered Clouds
1:00 AM 55.4 °F 41.0 °F 58% 30.09 in 6.2 mi North 6.9 mph - N/A   Scattered Clouds
1:30 AM 55.4 °F 41.0 °F 58% 30.09 in 6.2 mi North 6.9 mph - N/A   Scattered Clouds
2:00 AM 54 °F 40 °F 49% 30.09 in 19 mi North 6.9 mph - -   Partly Cloudy
2:00 AM 55.4 °F 41.0 °F 58% 30.09 in 6.2 mi North 5.8 mph - N/A   Scattered Clouds
2:30 AM 53.6 °F 42.8 °F 67% 30.06 in 6.2 mi NNW 4.6 mph - N/A   Scattered Clouds
3:00 AM 53.6 °F 42.8 °F 67% 30.06 in 6.2 mi North 5.8 mph - N/A   Scattered Clouds
3:30 AM 53.6 °F 42.8 °F 67% 30.06 in 6.2 mi North 4.6 mph - N/A   Scattered Clouds
4:00 AM 51.8 °F 42.8 °F 71% 30.06 in 6.2 mi Variable 2.3 mph - N/A   Scattered Clouds
4:30 AM 50.0 °F 42.8 °F 76% 30.06 in 6.2 mi NNE 4.6 mph - N/A   Scattered Clouds
5:00 AM 50.0 °F 42.8 °F 76% 30.06 in 6.2 mi North 2.3 mph - N/A   Scattered Clouds
5:30 AM 48.2 °F 42.8 °F 82% 30.06 in 6.2 mi Calm Calm - N/A   Scattered Clouds
6:00 AM 48.2 °F 41.0 °F 76% 30.06 in 6.2 mi NNW 3.5 mph - N/A   Scattered Clouds
6:30 AM 48.2 °F 41.0 °F 76% 30.06 in 6.2 mi Variable 2.3 mph - N/A   Scattered Clouds
7:00 AM 46.4 °F 41.0 °F 81% 30.06 in 6.2 mi NNW 2.3 mph - N/A   Scattered Clouds
7:30 AM 46.4 °F 42.8 °F 87% 30.06 in 6.2 mi Variable 2.3 mph - N/A   Partly Cloudy
8:00 AM 48 °F 42 °F 71% 30.11 in 19 mi NNW 5.8 mph - -   Clear
8:00 AM 48.2 °F 44.6 °F 87% 30.09 in - NNW 4.6 mph - N/A   Clear
8:30 AM 50.0 °F 42.8 °F 76% 30.09 in - North 4.6 mph - N/A   Clear
9:00 AM 53.6 °F 42.8 °F 67% 30.09 in - North 3.5 mph - N/A   Clear
9:30 AM 55.4 °F 44.6 °F 67% 30.09 in - South 1.2 mph - N/A   Clear
10:00 AM 57.2 °F 44.6 °F 63% 30.09 in - Variable 2.3 mph - N/A   Clear
10:30 AM 59.0 °F 44.6 °F 59% 30.09 in - SW 2.3 mph - N/A   Clear
11:00 AM 62.6 °F 44.6 °F 52% 30.09 in - SSW 3.5 mph - N/A   Clear
11:30 AM 64.4 °F 42.8 °F 45% 30.09 in - South 3.5 mph - N/A   Clear
12:00 PM 66.2 °F 44.6 °F 46% 30.09 in - WSW 2.3 mph - N/A   Clear
12:30 PM 68.0 °F 44.6 °F 43% 30.09 in 6.2 mi SW 3.5 mph - N/A   Partly Cloudy
1:00 PM 69.8 °F 44.6 °F 40% 30.06 in 6.2 mi WSW 2.3 mph - N/A   Partly Cloudy
1:30 PM 69.8 °F 46.4 °F 43% 30.06 in 6.2 mi North 2.3 mph - N/A   Partly Cloudy
2:00 PM 71 °F 42 °F 24% 29.99 in 19 mi SW 6.9 mph - -   Scattered Clouds
2:00 PM 71.6 °F 44.6 °F 38% 30.06 in 6.2 mi SW 4.6 mph - N/A   Partly Cloudy
2:30 PM 71.6 °F 42.8 °F 35% 30.06 in 6.2 mi SW 8.1 mph - N/A   Scattered Clouds
3:00 PM 71.6 °F 44.6 °F 38% 30.06 in 6.2 mi ESE 2.3 mph - N/A   Scattered Clouds
3:30 PM 71.6 °F 44.6 °F 38% 30.04 in 6.2 mi West 4.6 mph - N/A   Scattered Clouds
4:00 PM 75.2 °F 42.8 °F 31% 30.04 in 6.2 mi North 8.1 mph - N/A   Scattered Clouds
4:30 PM 75.2 °F 42.8 °F 31% 30.04 in 6.2 mi North 9.2 mph - N/A   Scattered Clouds
5:00 PM 75.2 °F 42.8 °F 31% 30.01 in 6.2 mi NNE 12.7 mph - N/A   Scattered Clouds
5:30 PM 73.4 °F 37.4 °F 27% 30.01 in 6.2 mi NNE 17.3 mph - N/A   Partly Cloudy
6:00 PM 69.8 °F 39.2 °F 33% 30.01 in 6.2 mi North 16.1 mph - N/A   Partly Cloudy
6:30 PM 71.6 °F 39.2 °F 31% 30.01 in 6.2 mi North 13.8 mph - N/A   Partly Cloudy
7:00 PM 71.6 °F 41.0 °F 33% 30.01 in 6.2 mi North 18.4 mph - N/A   Partly Cloudy
7:30 PM 69.8 °F 41.0 °F 35% 30.01 in 6.2 mi North 20.7 mph - N/A   Partly Cloudy
8:00 PM 66 °F 39 °F 26% 29.98 in 19 mi North 17.3 mph - -   Scattered Clouds
8:00 PM 66.2 °F 41.0 °F 40% 30.04 in - North 17.3 mph - N/A   Clear
8:30 PM 66.2 °F 42.8 °F 43% 30.04 in - North 15.0 mph - N/A   Clear
9:00 PM 64.4 °F 42.8 °F 45% 30.04 in - North 11.5 mph - N/A   Clear
9:30 PM 64.4 °F 42.8 °F 45% 30.04 in - North 11.5 mph 23.0 mph N/A   Clear
10:00 PM 62.6 °F 39.2 °F 42% 30.06 in - North 9.2 mph - N/A   Clear
10:30 PM 59.0 °F 41.0 °F 51% 30.06 in - NNW 4.6 mph - N/A   Clear
11:00 PM 60.8 °F 41.0 °F 48% 30.06 in - North 11.5 mph - N/A   Clear
11:30 PM 60.8 °F 41.0 °F 48% 30.06 in - North 11.5 mph - N/A   Clear